Flag for U.S.A. Weather past 2 weeks in El Paso, Texas, U.S.A.

Now
90 °F

Passing clouds.


Feels Like: 88 °F
Forecast: 75 / 97 °F
Wind: 3 mph from Northeast

Location: El Paso International Airport

Current Time: Jul 24, 2014 at 12:27:47 PM

Latest Report: Jul 24, 2014 at 11:51 AM


Visibility: 10 mi

Pressure: 29.94 "Hg

Humidity: 28%

Dew point: 53 °F

Location of El PasoLocation

Historic Weather in El Paso — Graph

°F

El Paso temperature yesterday

Maximum temperature yesterday: 95 °F (at 3:51 PM)
Minimum temperature yesterday: 70 °F (at 6:51 AM)
Average temperature yesterday: 84 °F

Past Weeks' High & Low Weather Summary

 TemperatureHumidityPressure
High103 °F (Jul 19, 3:51 PM)88% (Jul 23, 3:51 AM)30.08 "Hg (Jul 23, 3:51 AM)
Low68 °F (Jul 16, 5:51 AM)11% (Jul 19, 2:51 PM)29.64 "Hg (Jul 17, 5:51 PM)
Average84 °F39%29.83 "Hg
* Reported Jul 9 10:51 AM — Jul 24 10:51 AM, El Paso, Weather by CustomWeather, © 2014

Note: Actual official high and low records may vary slightly from our data, if they occured in-between our weather recording intervals... More about our weather records

Advertising

El Paso weather history for previous 24 hours

 ConditionsComfort  
Time TempWeatherWind HumidityBarometerVisibility
10:51 AM
Jul 24
87 °FPassing clouds.12 mph32%29.96 "Hg10 mi
9:51 AM85 °FPassing clouds.5 mph36%29.97 "Hg10 mi
8:51 AM81 °FPassing clouds.3 mph38%29.97 "Hg10 mi
7:51 AM78 °FPassing clouds.6 mph39%29.96 "Hg10 mi
6:51 AM75 °FPassing clouds.6 mph48%29.96 "Hg10 mi
5:51 AM75 °FPassing clouds.5 mph45%29.94 "Hg10 mi
4:51 AM74 °FClear.No wind46%29.92 "Hg10 mi
3:51 AM75 °FClear.6 mph45%29.92 "Hg10 mi
2:51 AM76 °FClear.5 mph43%29.92 "Hg10 mi
1:51 AM79 °FClear.6 mph38%29.94 "Hg10 mi
12:51 AM81 °FClear.5 mph34%29.94 "Hg10 mi
11:51 PM
Jul 23
81 °FClear.7 mph34%29.94 "Hg10 mi
10:51 PM82 °FClear.9 mph32%29.93 "Hg10 mi
9:51 PM84 °FPassing clouds.7 mph30%29.93 "Hg10 mi
8:51 PM88 °FPassing clouds.9 mph23%29.90 "Hg10 mi
7:51 PM91 °FPassing clouds.12 mph20%29.88 "Hg10 mi
6:51 PM93 °FPassing clouds.15 mph17%29.89 "Hg10 mi
5:51 PM94 °FPassing clouds.15 mph17%29.88 "Hg10 mi
4:51 PM95 °FPassing clouds.12 mph17%29.90 "Hg10 mi
3:51 PM95 °FPassing clouds.17 mph17%29.91 "Hg10 mi
2:51 PM94 °FScattered clouds.15 mph20%29.94 "Hg10 mi
1:51 PM93 °FScattered clouds.14 mph22%29.97 "Hg10 mi
12:51 PM91 °FScattered clouds.17 mph26%30.00 "Hg10 mi
Weather by CustomWeather, © 2014

See weather overviewHow to use our weather pages